Temp
84 84 84 78 71 72 66 68 76 73 74 80 81 77 75 75 72 69 81 84 86 87 87 85 82 83 83 83 83 83 83 83 82 82 83 83 83 83 84 84 84 84 84 84 84 84 84 84 84
84 82 81 73 68 64 66 73 72 75 78 81 80 78 75 71 76 75 79 83 87 88 89 88 81 83 83 83 83 83 83 83 83 83 83 83 83 83 84 84 84 84 83 83 84 84 84 84 84
83 82 74 71 69 64 66 74 75 78 81 81 76 80 76 72 74 79 84 85 86 86 88 88 82 83 83 83 83 83 83 83 82 83 83 83 83 84 83 84 84 83 83 84 84 84 84 84 84
82 79 76 70 67 70 72 76 79 77 81 81 80 73 78 81 80 83 86 86 86 85 88 84 83 83 83 83 83 83 83 83 82 83 84 84 84 84 84 82 84 84 83 83 84 84 84 84 84
81 75 70 70 69 73 78 80 80 77 78 79 80 73 74 81 84 85 85 86 86 86 88 88 83 83 83 83 83 83 83 83 83 83 84 84 84 84 83 84 82 84 84 84 84 84 84 83 83
73 75 70 67 70 73 78 82 81 79 79 78 77 75 75 80 82 84 86 86 88 86 88 88 84 83 83 83 83 84 84 83 83 84 84 84 84 84 84 84 84 84 84 84 84 84 84 83 84
75 74 70 70 70 71 76 83 79 78 77 77 82 73 74 78 82 84 85 86 86 87 86 88 88 86 84 84 84 83 83 83 83 83 84 83 84 84 83 83 84 84 84 84 84 83 83 84 84
77 78 70 72 71 72 81 82 83 80 76 85 85 75 72 79 82 84 85 86 86 85 87 86 87 87 87 88 84 84 84 84 84 83 84 84 83 84 84 83 84 84 84 84 84 84 83 83 84
78 74 72 73 72 76 83 79 83 85 81 82 83 82 84 82 83 82 80 82 83 84 86 87 87 86 84 85 86 84 84 84 84 84 84 84 88 89 88 84 82 84 84 84 84 84 83 83 83
78 74 74 81 83 80 82 81 81 79 79 77 78 81 83 82 81 80 80 81 82 83 84 86 85 85 85 86 84 86 87 88 88 88 86 86 86 88 88 86 83 84 84 84 84 83 83 81 80
77 76 79 83 86 85 82 81 84 79 74 80 77 77 80 81 82 82 83 84 85 86 85 84 84 83 86 84 85 87 87 88 87 84 85 87 88 89 89 89 89 90 86 88 88 88 81 85 86
77 80 81 83 86 83 80 84 80 81 81 86 84 82 82 81 82 83 83 83 83 83 84 86 85 83 85 85 85 86 86 87 87 87 85 85 86 87 86 88 88 86 90 82 87 89 87 85 82
78 82 84 85 85 85 85 81 80 81 84 86 84 82 81 82 83 84 85 86 85 84 85 86 85 82 83 82 84 85 86 87 88 86 86 86 86 86 87 87 87 87 89 85 86 85 86 84 82
84 82 84 86 85 85 81 80 82 82 84 82 82 81 83 82 83 83 82 83 84 85 86 87 84 82 84 82 82 84 86 87 86 87 87 84 86 85 86 86 86 87 88 87 86 83 84 84 84
85 80 83 83 84 81 84 75 77 83 84 81 82 82 82 83 84 82 84 84 86 86 86 85 85 85 83 83 83 85 87 89 87 87 86 85 85 85 84 86 86 87 86 85 84 81 81 83 83
80 80 76 82 82 80 83 74 81 83 82 80 81 81 81 82 84 85 85 85 86 87 85 85 87 87 86 86 84 86 87 88 88 88 88 84 82 84 84 85 87 87 87 86 86 84 83 83 84
78 73 75 77 84 79 79 76 81 83 83 80 80 82 82 82 83 85 86 86 87 86 84 83 85 86 86 84 85 86 86 87 88 88 88 86 86 85 84 87 87 86 87 86 85 84 83 82 84
73 74 77 75 81 80 76 78 79 81 81 81 80 82 81 82 83 86 87 88 89 87 86 85 85 85 84 85 84 85 86 86 87 88 88 87 88 85 80 88 86 86 87 85 85 82 85 84 84
78 75 75 80 84 80 79 80 80 81 80 80 82 82 82 83 88 89 89 89 89 87 86 85 83 83 83 83 83 84 84 86 86 87 86 85 86 86 84 88 86 86 84 85 84 84 82 85 85
80 77 79 81 81 79 79 77 82 81 80 82 82 82 83 85 87 87 88 89 89 87 85 84 84 83 83 85 85 86 86 87 89 89 87 87 86 86 86 85 86 85 86 83 83 82 83 84 85
82 79 79 76 77 79 76 75 76 81 83 84 86 87 88 86 86 87 86 88 88 87 85 84 83 84 83 84 84 84 84 85 85 86 88 89 87 87 85 85 86 85 85 86 84 84 81 82 84
77 85 81 80 77 72 77 70 74 80 79 80 84 85 87 88 88 88 90 89 89 88 87 86 84 84 84 83 84 82 84 83 86 87 89 89 88 88 87 86 86 84 87 84 85 86 83 81 80
81 84 79 76 75 73 72 71 78 75 76 80 82 86 88 90 91 90 91 91 91 90 88 87 84 83 84 83 84 83 83 86 88 88 86 86 87 87 88 87 86 85 87 86 84 84 82 84 83
87 83 78 76 76 70 71 73 79 79 81 84 87 87 88 91 91 91 92 92 91 91 89 88 83 82 83 82 82 82 82 83 84 85 86 88 89 90 87 87 86 86 87 86 86 85 83 83 82
82 79 70 68 69 69 71 70 79 86 88 88 91 88 89 90 91 90 89 89 90 89 88 88 84 82 82 82 83 82 83 83 83 84 87 87 88 89 89 87 86 88 86 86 85 84 84 84 84
81 80 70 59 63 69 70 71 82 89 91 93 91 93 92 93 93 92 91 90 88 88 88 88 86 83 84 83 83 83 84 86 86 86 88 88 89 90 89 88 87 87 87 87 86 86 87 85 86
77 74 84 75 68 68 74 79 86 88 93 91 91 90 90 93 94 92 93 91 89 89 88 88 87 85 85 86 84 83 83 83 86 85 86 88 87 90 87 87 86 86 86 86 86 87 84 85 86
81 83 73 72 61 60 70 70 76 84 86 89 90 88 90 93 93 93 93 92 92 93 93 91 89 86 85 87 86 86 85 84 85 85 84 86 87 86 86 86 86 87 87 87 84 84 85 84 87
77 76 74 76 72 66 64 72 86 85 87 86 91 90 91 92 94 95 93 93 93 93 93 92 89 88 87 88 88 87 87 86 85 86 85 85 88 86 84 84 85 85 85 86 84 85 85 83 83
78 77 77 71 66 68 68 73 90 85 88 89 90 92 92 92 94 95 95 92 89 90 91 89 89 89 89 87 86 87 86 86 88 86 87 87 86 87 85 84 84 84 85 84 83 85 86 83 82
MSLP
1010.53 1010.45 1010.59 1010.46 1010.47 1009.57 1009.51 1009.67 1009.51 1009.62 1009.98 1010.32 1010.97 1011.38 1011.68 1012.14 1012.47 1013.35 1013.69 1013.92 1014.13 1014.56 1015.13 1015.59 1015.94 1016.11 1016.43 1016.61 1016.76 1016.86 1016.85 1016.99 1017.10 1017.18 1017.14 1017.25 1017.24 1017.48 1017.56 1017.75 1017.86 1017.90 1018.01 1017.98 1018.04 1018.16 1018.22 1018.33 1018.47
1010.54 1010.66 1010.36 1010.00 1009.88 1009.30 1009.36 1009.18 1009.26 1009.63 1009.98 1010.45 1010.95 1011.35 1011.75 1012.30 1012.95 1013.62 1013.90 1014.32 1014.25 1014.64 1015.12 1015.44 1016.01 1016.17 1016.43 1016.65 1016.86 1016.95 1016.99 1017.16 1017.21 1017.28 1017.40 1017.47 1017.54 1017.74 1017.80 1017.93 1018.02 1018.10 1018.11 1018.15 1018.10 1018.17 1018.29 1018.39 1018.56
1010.68 1010.70 1010.50 1010.00 1009.84 1009.38 1009.14 1009.16 1009.33 1009.67 1010.03 1010.16 1010.82 1011.46 1011.97 1012.66 1013.36 1013.49 1013.83 1014.36 1014.62 1015.03 1015.29 1015.65 1016.16 1016.20 1016.41 1016.70 1016.80 1017.02 1017.13 1017.29 1017.58 1017.44 1017.62 1017.59 1017.68 1017.84 1018.06 1018.19 1018.22 1018.42 1018.36 1018.27 1018.29 1018.37 1018.45 1018.62 1018.83
1010.68 1010.82 1010.73 1010.08 1009.55 1009.46 1009.08 1009.06 1009.26 1009.60 1010.09 1010.46 1010.88 1011.56 1012.45 1012.82 1013.32 1013.62 1014.12 1014.36 1014.76 1015.26 1015.57 1016.06 1016.25 1016.39 1016.63 1016.77 1016.95 1017.10 1017.30 1017.51 1017.61 1017.59 1017.70 1017.70 1017.80 1017.95 1018.19 1018.42 1018.26 1018.51 1018.55 1018.62 1018.53 1018.78 1018.74 1018.87 1019.06
1010.91 1010.53 1010.04 1009.61 1009.40 1009.25 1008.95 1009.05 1009.35 1009.56 1009.98 1010.44 1010.76 1011.78 1012.67 1013.31 1013.53 1013.98 1014.32 1014.59 1014.85 1015.33 1015.67 1015.92 1016.36 1016.58 1016.75 1016.94 1017.03 1017.17 1017.41 1017.55 1017.69 1017.76 1017.70 1017.78 1017.98 1018.20 1018.44 1018.46 1018.57 1018.52 1018.64 1018.78 1018.89 1018.94 1018.89 1019.11 1019.26
1010.63 1010.26 1009.75 1009.38 1009.22 1009.07 1008.91 1009.03 1009.29 1009.68 1010.16 1010.65 1011.12 1011.81 1013.04 1013.74 1013.88 1014.22 1014.53 1014.78 1014.95 1015.41 1015.61 1015.84 1016.38 1016.59 1016.76 1016.95 1017.09 1017.30 1017.51 1017.64 1017.82 1017.91 1017.83 1017.95 1018.11 1018.41 1018.50 1018.57 1018.66 1018.75 1018.82 1018.92 1019.01 1019.12 1019.17 1019.27 1019.28
1010.13 1009.71 1009.51 1009.24 1009.05 1008.86 1008.84 1009.09 1009.35 1009.71 1010.09 1010.48 1010.99 1011.69 1013.24 1013.71 1014.14 1014.53 1014.82 1015.05 1015.22 1015.51 1015.68 1015.90 1016.11 1016.47 1016.74 1016.93 1017.16 1017.30 1017.52 1017.70 1017.92 1018.02 1018.03 1018.19 1018.34 1018.50 1018.66 1018.80 1018.81 1018.92 1019.04 1019.08 1019.17 1019.26 1019.36 1019.38 1019.38
1010.09 1009.57 1009.24 1008.93 1008.66 1008.48 1008.57 1009.05 1009.44 1009.56 1010.06 1010.57 1010.90 1011.31 1012.55 1013.41 1014.24 1014.72 1014.98 1015.20 1015.46 1015.69 1015.76 1016.08 1016.21 1016.40 1016.66 1016.85 1017.25 1017.39 1017.61 1017.79 1018.01 1018.06 1018.21 1018.35 1018.52 1018.70 1018.85 1018.88 1018.90 1019.00 1019.07 1019.06 1019.20 1019.27 1019.36 1019.40 1019.43
1010.20 1009.45 1008.65 1008.24 1008.17 1008.00 1008.35 1008.75 1009.48 1009.86 1010.15 1010.54 1010.97 1011.35 1011.85 1013.30 1014.17 1014.61 1014.99 1015.28 1015.54 1015.79 1015.92 1015.99 1016.25 1016.64 1016.96 1017.14 1017.24 1017.57 1017.76 1017.89 1018.12 1018.21 1018.35 1018.43 1018.45 1018.50 1018.54 1018.94 1018.97 1019.07 1019.13 1019.16 1019.23 1019.24 1019.36 1019.42 1019.43
1009.47 1008.87 1008.18 1007.78 1007.48 1007.46 1007.98 1008.46 1009.14 1009.78 1010.15 1010.59 1011.21 1011.85 1012.48 1013.27 1013.75 1014.11 1014.42 1014.65 1015.12 1015.41 1015.78 1016.05 1016.31 1016.61 1016.96 1017.06 1017.35 1017.47 1017.53 1017.63 1017.90 1018.00 1018.20 1018.37 1018.59 1018.67 1018.71 1018.94 1019.12 1019.10 1019.13 1019.20 1019.26 1019.32 1019.34 1019.42 1019.50
1008.94 1008.34 1007.97 1007.23 1007.05 1007.23 1007.82 1008.49 1009.03 1009.51 1009.92 1010.07 1010.61 1011.71 1012.47 1013.02 1013.48 1013.78 1014.05 1014.21 1014.58 1015.04 1015.55 1016.02 1016.33 1016.68 1016.75 1016.99 1017.29 1017.35 1017.51 1017.72 1017.94 1018.24 1018.33 1018.37 1018.55 1018.66 1018.70 1018.73 1018.77 1018.83 1018.95 1018.94 1018.94 1018.96 1019.27 1019.15 1019.17
1008.35 1007.90 1007.63 1007.03 1006.94 1007.26 1007.75 1008.24 1008.77 1009.24 1009.39 1009.52 1010.33 1011.29 1012.06 1012.57 1012.96 1013.30 1013.68 1014.12 1014.65 1015.06 1015.47 1015.78 1016.10 1016.53 1016.69 1016.99 1017.14 1017.25 1017.45 1017.72 1017.84 1018.08 1018.38 1018.45 1018.53 1018.64 1018.82 1018.71 1018.76 1018.84 1018.63 1019.03 1018.82 1018.64 1018.74 1018.86 1019.09
1007.76 1007.16 1006.93 1006.65 1006.77 1007.07 1007.74 1008.19 1008.62 1009.04 1009.37 1009.76 1010.59 1011.47 1011.87 1012.21 1012.64 1013.07 1013.40 1013.88 1014.33 1014.66 1015.09 1015.48 1015.91 1016.45 1016.68 1017.06 1017.13 1017.29 1017.40 1017.62 1017.80 1018.10 1018.22 1018.37 1018.44 1018.53 1018.65 1018.63 1018.61 1018.66 1018.57 1018.76 1018.59 1018.60 1018.46 1018.63 1018.71
1007.05 1006.68 1006.32 1006.09 1006.42 1006.86 1007.37 1008.11 1008.57 1008.91 1009.44 1009.92 1010.56 1011.05 1011.55 1011.97 1012.37 1012.84 1013.23 1013.53 1013.97 1014.36 1014.69 1015.20 1015.72 1016.14 1016.45 1016.72 1016.95 1017.02 1017.24 1017.39 1017.71 1017.84 1017.97 1018.32 1018.30 1018.35 1018.40 1018.47 1018.45 1018.43 1018.44 1018.49 1018.50 1018.58 1018.38 1018.23 1018.23
1006.53 1006.11 1005.98 1005.97 1006.28 1006.66 1007.19 1007.95 1007.81 1008.39 1009.05 1009.62 1010.17 1010.84 1011.31 1011.68 1012.13 1012.30 1012.70 1013.14 1013.55 1013.96 1014.53 1015.03 1015.48 1015.76 1016.27 1016.51 1016.74 1016.85 1016.97 1017.14 1017.35 1017.52 1017.87 1018.06 1018.14 1018.16 1018.28 1018.20 1018.25 1018.27 1018.41 1018.37 1018.39 1018.50 1018.45 1018.13 1017.93
1006.25 1006.03 1005.72 1005.87 1006.18 1006.81 1006.90 1006.38 1007.11 1008.00 1008.58 1009.09 1009.79 1010.38 1010.98 1011.30 1011.46 1011.92 1012.38 1012.82 1013.27 1013.61 1014.21 1014.83 1015.17 1015.47 1015.79 1015.98 1016.30 1016.47 1016.69 1016.88 1017.04 1017.15 1017.33 1017.64 1017.80 1017.91 1017.96 1017.93 1017.87 1017.99 1018.04 1017.93 1017.87 1018.15 1018.05 1017.87 1017.64
1006.17 1005.60 1005.48 1005.58 1005.80 1006.29 1006.74 1006.03 1006.55 1007.48 1008.01 1008.62 1009.30 1009.85 1010.26 1010.73 1011.13 1011.37 1011.77 1012.25 1012.64 1013.18 1013.78 1014.33 1014.76 1015.02 1015.38 1015.71 1016.06 1016.35 1016.50 1016.69 1016.74 1016.91 1016.97 1017.11 1017.36 1017.42 1017.57 1017.49 1017.58 1017.76 1017.53 1017.64 1017.77 1017.82 1017.86 1017.55 1017.38
1005.92 1005.47 1005.12 1005.22 1005.38 1005.81 1006.10 1005.85 1006.40 1007.04 1007.39 1007.78 1008.49 1009.11 1009.60 1009.98 1010.16 1010.62 1011.12 1011.61 1012.10 1012.67 1013.26 1013.75 1014.32 1014.79 1015.31 1015.69 1016.04 1016.18 1016.32 1016.34 1016.46 1016.46 1016.50 1016.73 1016.85 1017.00 1017.31 1017.12 1017.33 1017.38 1017.19 1017.32 1017.45 1017.59 1017.56 1017.49 1017.18
1006.16 1005.63 1005.04 1004.26 1004.68 1005.14 1004.71 1004.83 1005.59 1006.35 1006.97 1007.27 1007.52 1008.15 1008.69 1009.02 1009.03 1009.92 1010.52 1011.07 1011.64 1012.25 1012.76 1013.25 1013.83 1014.34 1015.01 1015.41 1015.61 1015.79 1015.74 1015.88 1016.05 1016.06 1016.23 1016.39 1016.42 1016.54 1016.78 1016.66 1016.83 1016.84 1016.89 1017.11 1017.30 1017.21 1017.25 1016.96 1017.08
1005.44 1005.08 1004.46 1004.23 1004.48 1004.89 1004.46 1004.28 1004.81 1005.41 1005.50 1005.94 1006.40 1006.95 1007.56 1007.93 1008.49 1009.08 1009.57 1010.16 1010.78 1011.28 1011.86 1012.56 1013.06 1013.72 1014.28 1014.73 1015.09 1015.30 1015.44 1015.47 1015.46 1015.52 1015.73 1015.83 1015.92 1016.07 1016.22 1016.27 1016.29 1016.38 1016.71 1017.04 1017.07 1017.25 1017.04 1016.96 1016.90
1004.60 1004.60 1004.31 1004.46 1004.58 1004.67 1004.57 1003.63 1003.96 1004.29 1004.88 1005.30 1005.73 1006.01 1006.37 1006.83 1007.42 1008.04 1008.81 1009.25 1009.89 1010.54 1011.17 1011.72 1012.33 1012.92 1013.55 1014.07 1014.75 1015.10 1015.34 1015.40 1015.38 1015.38 1015.35 1015.21 1015.53 1015.67 1015.85 1015.83 1015.89 1016.26 1016.61 1016.54 1016.80 1016.86 1017.07 1016.80 1016.65
1004.04 1004.19 1004.38 1004.11 1004.26 1004.01 1004.51 1003.41 1003.14 1003.17 1003.73 1004.25 1004.40 1004.80 1005.13 1005.68 1006.50 1007.10 1007.70 1008.40 1009.02 1009.47 1010.24 1010.84 1011.54 1012.22 1012.90 1013.58 1014.03 1014.35 1014.48 1014.64 1014.74 1014.81 1014.87 1014.97 1015.10 1015.20 1015.39 1015.47 1015.70 1015.99 1016.27 1016.32 1016.47 1016.70 1016.95 1016.95 1016.54
1003.88 1004.12 1004.36 1004.28 1004.12 1004.14 1004.15 1003.81 1002.26 1002.70 1002.62 1002.52 1002.82 1003.17 1003.69 1004.30 1005.07 1005.81 1006.55 1007.19 1007.73 1008.74 1009.44 1010.07 1010.99 1011.68 1012.27 1012.87 1013.24 1013.73 1014.08 1014.25 1014.52 1014.63 1014.76 1014.88 1014.91 1014.89 1014.89 1015.10 1015.32 1015.68 1015.84 1015.94 1016.20 1016.36 1016.55 1016.49 1016.36
1003.99 1003.86 1004.18 1004.26 1004.08 1003.45 1003.57 1003.13 1001.19 1001.18 1000.73 1000.44 1000.99 1001.75 1002.27 1002.96 1003.89 1004.75 1005.54 1006.34 1007.10 1007.97 1008.78 1009.48 1010.34 1010.93 1011.67 1012.27 1012.78 1013.24 1013.44 1013.80 1014.10 1014.21 1014.24 1014.34 1014.48 1014.59 1014.55 1014.69 1014.91 1014.98 1015.18 1015.42 1015.60 1015.82 1015.98 1015.99 1016.05
1003.92 1003.62 1003.41 1003.35 1003.30 1002.91 1003.33 1002.70 1000.46 999.90 999.55 999.59 999.58 1000.28 1001.03 1001.98 1002.85 1003.83 1004.71 1005.56 1006.33 1007.19 1007.98 1008.69 1009.57 1010.19 1010.85 1011.47 1012.00 1012.46 1012.82 1013.26 1013.46 1013.76 1013.93 1013.98 1014.12 1014.25 1014.28 1014.50 1014.65 1014.70 1014.79 1015.09 1015.24 1015.43 1015.48 1015.56 1015.34
1003.31 1003.55 1003.57 1003.25 1003.26 1003.06 1003.13 1001.39 999.36 999.16 998.74 998.70 999.04 999.29 1000.06 1000.95 1001.88 1002.77 1003.50 1004.48 1005.46 1006.31 1007.16 1007.89 1008.66 1009.37 1010.14 1010.75 1011.14 1011.68 1012.18 1012.60 1012.98 1013.31 1013.42 1013.63 1013.69 1013.83 1014.10 1014.21 1014.24 1014.30 1014.34 1014.57 1014.88 1015.08 1015.10 1015.12 1014.93
1003.33 1003.42 1003.26 1003.10 1004.00 1003.26 1002.03 1000.82 999.48 998.79 998.29 998.31 998.49 998.95 999.49 1000.06 1000.82 1001.73 1002.57 1003.58 1004.43 1005.27 1006.06 1006.82 1007.77 1008.59 1009.25 1009.81 1010.51 1011.08 1011.60 1012.10 1012.25 1012.64 1013.06 1013.26 1013.50 1013.65 1013.95 1014.04 1014.11 1014.17 1014.25 1014.55 1014.71 1014.68 1014.78 1014.79 1014.75
1003.17 1003.27 1003.54 1003.49 1002.91 1002.26 1001.48 1000.76 999.30 998.74 998.50 998.64 998.61 999.02 999.43 999.85 1000.31 1001.05 1001.81 1002.67 1003.36 1004.00 1005.02 1006.07 1006.78 1007.35 1007.94 1008.75 1009.54 1010.03 1010.63 1011.27 1011.67 1012.13 1012.41 1012.66 1012.99 1013.32 1013.46 1013.55 1013.68 1013.75 1013.80 1013.99 1014.09 1014.17 1014.33 1014.42 1014.48
1003.56 1003.31 1003.37 1003.01 1002.90 1002.04 1001.17 999.76 999.17 998.96 998.95 999.03 998.84 998.95 999.04 999.54 1000.02 1000.32 1000.77 1001.64 1002.35 1003.06 1004.06 1004.78 1005.80 1006.50 1007.29 1007.85 1008.42 1009.08 1009.64 1010.29 1010.89 1011.22 1011.68 1012.13 1012.42 1012.65 1012.88 1012.93 1013.06 1013.16 1013.17 1013.29 1013.44 1013.50 1013.72 1014.19 1014.33
1003.72 1003.30 1003.13 1002.67 1002.94 1002.72 1001.62 999.60 999.17 999.36 999.24 999.26 999.14 998.88 999.09 999.16 999.28 999.80 1000.34 1000.98 1001.73 1002.40 1003.02 1003.96 1004.73 1005.57 1006.11 1006.72 1007.56 1008.16 1008.88 1009.52 1009.97 1010.42 1010.80 1011.20 1011.41 1011.77 1012.06 1012.23 1012.45 1012.65 1012.78 1013.07 1013.28 1013.21 1013.44 1013.77 1013.82
Wind_Speed
5 2 0 1 1 2 3 3 1 8 6 2 14 4 4 3 1 3 6 6 14 15 12 11 7 13 13 11 9 10 10 9 9 10 11 10 9 11 11 10 10 9 9 9 10 10 9 9 10
6 2 1 1 3 3 3 2 7 3 7 14 10 7 3 3 3 7 11 9 14 13 11 10 8 13 12 11 9 9 11 9 8 9 9 10 10 11 10 10 9 9 9 9 11 10 9 8 9
4 3 2 2 2 2 3 1 7 12 9 9 5 5 2 3 4 14 6 15 13 12 10 10 9 10 13 10 9 9 9 8 7 10 10 9 10 10 10 10 10 9 10 10 10 8 8 8 7
0 1 1 2 5 2 1 4 12 10 8 5 10 7 4 2 13 5 15 15 13 11 10 10 9 9 8 9 8 11 10 8 7 10 9 9 8 9 9 9 11 10 10 9 8 8 6 6 6
0 1 2 3 3 1 1 8 7 5 4 6 3 6 8 3 5 13 16 13 13 11 10 10 9 9 9 8 10 10 9 9 8 9 8 9 8 7 8 9 8 9 10 9 8 7 5 5 5
2 1 2 3 2 2 3 9 7 5 6 7 9 10 5 3 11 13 14 12 11 11 10 9 9 9 9 10 10 9 9 10 8 7 7 8 8 7 7 7 7 7 8 7 6 4 4 4 4
2 1 2 1 2 1 3 7 5 5 6 5 11 7 4 6 10 12 11 11 10 10 9 8 8 8 9 8 9 9 11 9 8 6 7 5 7 6 6 5 5 5 6 5 4 3 2 2 3
0 1 2 1 3 0 8 8 7 4 3 10 4 5 7 10 13 12 10 10 10 9 8 7 7 7 6 8 8 8 8 9 7 5 8 5 5 5 6 4 4 4 3 3 2 3 3 1 2
1 1 1 2 5 2 11 8 5 5 9 3 3 4 11 19 16 13 11 10 10 8 8 8 7 6 6 6 7 7 7 7 6 5 6 5 3 2 3 4 2 2 2 3 4 3 2 2 2
2 0 2 2 4 4 15 11 11 5 10 2 5 9 18 18 16 15 13 12 12 12 11 8 7 7 6 5 4 5 5 4 4 4 4 3 2 1 1 1 3 1 1 1 1 0 0 2 1
2 1 1 2 6 8 13 9 7 9 8 8 10 16 18 17 15 14 13 12 13 11 9 9 8 7 7 5 5 4 4 4 4 4 4 3 2 2 1 2 2 2 2 3 2 2 1 4 4
2 4 4 4 5 10 14 10 7 10 2 9 12 19 18 16 16 15 12 11 10 10 10 10 10 8 7 5 5 5 4 4 4 4 5 3 3 2 1 2 2 2 2 3 3 3 4 5 4
3 3 3 5 9 8 10 10 4 10 3 11 17 18 17 16 15 13 12 10 10 11 10 11 10 9 7 7 5 5 5 4 5 4 5 4 3 2 3 3 3 3 3 3 4 4 5 5 5
3 5 6 4 11 10 12 6 6 9 10 13 17 18 16 16 15 13 13 12 12 10 10 11 11 10 9 8 8 6 5 6 5 5 5 6 5 4 4 4 4 4 4 4 4 4 6 5 5
5 4 2 5 11 7 10 6 11 10 14 15 16 14 14 15 14 15 14 13 12 10 9 11 11 11 11 10 7 6 6 6 6 6 7 7 6 6 6 5 4 5 5 6 5 5 5 6 6
3 1 3 5 11 6 10 7 13 15 17 17 16 14 14 15 17 14 13 13 12 11 11 11 10 12 12 10 8 6 6 6 6 6 6 8 8 8 6 5 5 4 4 5 5 5 6 6 6
4 10 10 3 12 8 12 6 6 16 16 16 16 15 14 14 15 15 15 14 14 14 13 13 13 13 13 10 7 7 6 6 5 6 6 8 8 8 7 6 5 5 4 4 4 5 6 6 6
15 15 12 11 5 11 12 14 6 15 17 18 17 16 16 15 19 18 17 16 15 14 14 13 12 13 11 7 6 5 6 6 6 7 7 9 8 8 5 6 6 5 5 5 4 5 4 6 7
10 11 14 16 6 10 16 17 14 16 16 15 16 16 16 18 19 16 16 16 15 14 14 14 13 13 10 8 7 7 7 6 6 6 8 8 9 9 8 6 6 6 6 5 5 5 5 5 3
8 14 13 8 3 10 7 16 13 17 22 21 19 17 18 19 16 15 17 17 18 18 17 16 16 15 13 9 7 5 5 6 6 5 6 7 8 8 8 8 7 8 5 6 6 5 4 3 3
10 13 13 7 3 5 6 8 11 13 17 17 18 17 18 19 18 17 16 18 18 18 18 16 15 15 13 13 7 5 3 4 5 7 7 6 7 8 9 9 7 7 6 6 6 6 5 5 3
14 6 10 13 8 5 2 5 4 11 15 17 20 19 19 20 19 16 16 16 17 19 17 17 16 16 14 14 11 11 9 9 8 8 8 5 6 7 8 9 8 7 6 7 5 4 5 5 5
11 5 7 5 3 4 4 5 1 1 11 19 22 22 22 21 20 20 19 19 19 16 17 16 15 14 13 14 13 12 12 9 7 6 8 6 4 7 8 8 8 8 7 7 7 6 6 4 5
7 7 1 1 2 4 2 5 3 4 6 7 18 23 23 21 20 19 19 18 16 16 16 15 15 16 15 15 16 14 13 12 9 8 7 6 4 4 7 8 8 8 8 8 7 8 8 6 6
2 5 5 4 4 3 2 5 9 10 12 12 10 19 22 19 18 18 18 17 17 18 18 16 17 16 17 17 16 17 15 14 13 11 8 8 6 6 6 6 7 7 6 6 6 7 7 7 7
8 6 5 5 6 10 3 6 6 5 9 9 9 13 19 19 17 18 20 19 18 19 20 18 17 16 16 16 17 14 15 10 10 11 9 8 8 7 5 4 6 7 6 4 4 5 5 6 7
4 8 5 7 1 4 3 6 12 1 10 9 7 9 15 19 18 19 17 18 18 19 21 20 18 17 17 18 15 14 13 14 12 12 10 9 9 8 6 6 6 8 6 5 4 5 6 5 6
7 7 5 3 6 7 5 4 11 11 13 12 11 5 11 15 17 17 16 18 18 20 19 20 20 19 19 18 16 15 16 14 13 12 12 11 10 9 8 8 7 8 6 6 6 5 5 5 6
4 5 3 3 3 8 8 6 4 6 9 10 11 5 10 14 16 16 17 17 20 18 18 20 19 19 18 18 17 16 15 16 14 14 13 12 12 11 10 10 9 8 8 7 7 6 5 5 6
5 3 4 6 7 2 5 11 4 4 6 8 12 12 6 13 17 18 17 16 16 17 19 18 18 19 20 16 15 17 15 14 16 15 15 14 14 13 11 10 9 8 7 6 7 7 6 4 5
Wind_Direction
210 240 269 224 145 78 76 81 95 123 134 174 151 202 183 63 205 30 125 129 145 146 150 160 159 145 148 142 130 121 116 110 128 131 131 126 127 128 132 125 131 136 134 127 123 123 118 127 122
151 184 328 61 69 81 58 335 106 110 119 124 116 122 111 96 62 109 139 151 149 143 152 152 140 140 143 142 140 129 117 123 124 129 127 124 128 129 131 132 137 132 127 131 120 123 130 123 123
106 9 338 48 79 96 130 101 109 116 143 149 113 51 60 64 93 144 118 147 146 144 148 143 147 138 144 147 146 124 123 126 138 134 124 127 124 125 129 133 134 126 129 127 119 128 122 132 132
148 135 121 48 91 116 271 131 133 124 102 85 119 83 94 308 141 155 142 147 145 145 152 143 145 137 141 158 138 131 131 129 129 119 126 123 127 123 122 128 136 129 120 123 120 118 122 123 125
319 198 66 93 78 57 234 139 138 123 96 113 137 110 106 98 126 140 146 152 149 149 156 153 157 152 161 157 141 137 142 139 132 135 134 130 129 120 128 116 124 130 126 121 112 121 127 139 137
238 254 98 75 41 4 96 146 134 98 103 118 108 111 122 96 142 149 150 153 152 154 156 154 160 166 164 154 147 145 146 142 140 149 132 126 125 129 129 120 126 118 108 108 110 118 146 163 171
283 59 83 117 111 105 151 162 134 131 138 124 129 113 103 151 143 147 149 145 151 155 157 161 159 170 161 158 153 162 154 145 151 170 149 140 135 137 123 120 114 104 111 117 134 137 122 188 195
8 325 127 201 192 172 160 160 151 147 82 126 136 151 156 157 150 144 147 148 155 162 162 163 165 161 161 161 163 143 146 156 159 168 142 136 125 118 135 128 141 107 99 88 103 163 161 180 242
331 65 186 198 179 148 164 157 144 101 140 153 114 115 128 142 148 147 151 161 168 170 178 173 170 160 154 161 158 158 162 143 159 169 136 149 136 135 140 74 1 89 68 69 67 108 123 127 302
270 145 190 208 227 200 180 176 149 144 163 145 115 100 133 149 160 163 173 176 178 179 185 182 178 172 165 168 153 165 157 159 163 166 167 160 166 143 36 11 288 323 338 1 68 101 172 92 315
134 304 330 275 231 180 170 173 160 150 192 204 173 151 153 159 171 179 185 187 184 183 186 186 182 179 180 172 174 176 168 169 172 179 194 193 199 187 194 221 230 283 243 307 276 247 297 295 293
283 239 241 294 146 156 168 164 178 181 90 193 164 161 160 169 179 186 192 191 186 194 198 190 190 184 187 176 190 179 186 184 190 191 194 202 219 202 225 265 272 251 262 257 264 282 287 272 258
224 300 274 235 158 172 154 181 176 192 115 142 145 163 173 181 184 191 197 196 197 199 194 195 190 189 189 191 187 186 192 196 198 200 201 202 229 237 258 261 273 265 264 266 275 282 283 283 272
252 246 281 166 169 159 172 167 183 186 145 148 161 175 180 189 192 191 200 202 203 201 193 188 194 192 194 199 195 189 193 201 203 210 211 209 228 230 251 263 274 269 268 266 274 279 284 278 271
269 265 167 144 165 158 148 162 216 167 168 166 178 185 191 195 195 203 202 205 206 205 194 194 197 196 199 201 196 200 201 197 214 218 212 216 230 236 257 262 265 276 281 267 260 273 268 272 271
304 271 298 159 164 158 197 255 197 169 172 178 187 188 198 204 206 208 207 208 205 207 200 195 197 198 200 201 197 202 206 211 216 224 224 217 225 231 243 257 271 281 270 254 260 258 264 262 276
39 330 311 302 197 157 205 274 185 175 182 182 189 199 205 209 216 213 212 211 207 205 199 197 199 204 203 204 206 214 218 224 234 235 237 235 231 232 237 249 262 264 264 257 253 256 264 299 297
327 324 315 305 202 199 206 240 183 187 189 191 190 203 210 214 220 215 212 209 209 206 204 201 200 207 205 204 207 220 230 236 240 245 239 237 239 240 212 245 252 242 255 244 240 263 273 278 289
298 293 306 303 254 228 233 241 208 192 201 204 201 201 214 220 224 217 217 216 212 208 205 205 200 202 194 199 207 224 230 229 235 232 236 236 235 236 231 240 237 238 247 258 251 267 281 301 314
309 319 322 302 350 221 281 255 234 198 206 206 201 201 212 223 224 218 215 212 212 208 207 203 206 198 200 201 204 208 207 224 233 225 239 230 226 223 226 229 234 238 252 252 250 259 292 282 311
319 311 319 318 350 207 292 266 222 219 217 215 217 216 212 221 221 218 211 209 210 210 207 205 206 202 202 203 196 181 184 224 230 235 244 235 225 225 225 223 234 234 236 256 252 248 257 296 314
310 327 292 318 308 317 271 308 252 223 213 215 218 214 214 215 219 223 214 205 204 210 206 206 204 203 203 195 201 204 211 216 226 225 225 231 229 221 223 230 232 239 246 256 263 248 253 252 296
291 338 335 332 298 259 169 263 280 24 229 224 221 218 219 215 215 215 214 210 205 201 200 203 203 206 203 196 203 202 213 220 226 220 225 226 224 224 227 233 238 241 247 252 260 261 245 244 274
301 296 315 81 298 253 54 252 289 209 224 235 218 219 220 214 215 216 214 210 207 199 198 195 197 202 200 200 204 206 211 215 219 218 223 224 234 233 229 239 239 240 246 249 260 261 255 253 252
178 308 302 252 233 320 58 222 262 265 250 250 266 212 215 211 209 210 208 205 204 199 198 194 197 201 199 202 205 207 212 212 216 219 226 233 229 233 238 243 250 252 255 261 269 268 269 255 256
256 267 273 289 303 318 132 249 292 276 307 282 276 235 210 206 206 204 207 202 199 198 198 198 197 205 200 203 205 205 208 214 220 221 227 233 238 241 255 261 274 266 261 264 267 269 277 274 272
175 214 286 253 165 242 295 275 281 282 322 322 339 223 205 201 197 205 208 200 197 199 201 197 197 205 202 205 204 207 208 214 218 219 219 229 238 245 251 255 265 262 264 260 264 267 268 268 285
234 146 192 207 240 242 204 265 281 329 330 351 353 250 216 206 199 203 205 203 203 204 201 203 202 200 200 205 204 206 207 207 214 216 220 222 228 231 234 236 242 258 258 265 269 261 261 270 291
176 205 204 228 232 257 260 251 202 273 331 336 343 307 218 212 217 211 200 205 207 201 199 202 202 202 203 204 204 206 206 206 208 216 218 219 225 223 225 231 240 239 246 253 244 238 272 284 300
237 272 240 239 191 238 289 257 277 293 332 331 340 346 255 224 213 211 214 205 196 197 198 198 199 202 206 203 198 204 202 202 209 216 216 215 219 219 219 220 225 238 254 253 253 279 285 283 298